www.pogodaiklimat.ru

Погода и климат >> Архив погоды >> Южная Африка >> Робертсон


ПОГОДА в Робертсоне

  • Прогноз погоды в Робертсоне
  • Монитор погоды в Робертсоне

АРХИВ ПОГОДЫ в Робертсоне

Время (UTC), дата Ветер
(напр.,м/с)
 
Видим.   Явления Облачность Т
(С)
Тd
(С)
f
(%)
Тe
(С)
Тes
(С)
Комфортность P
(гПа)
Po
(гПа)
Тmin
(С)
Tmax
(С)
R
(мм)
R24
(мм)
S
(см)
18 13.09 В 1 >70 км 9/0 2000 м
[Ac As]
+13.1 +3.5 52 +13 +13 997.5 +13.1 +20.0
21 13.09 В 1 н/о н/о +10.5 +5.0 69 +10 +10 998.7 +10.5 +20.0
00 14.09 СЗ 1 н/о н/о +9.0 +5.0 76 +8 +8 997.2 +8.8 +20.0
03 14.09 штиль 0 н/о н/о +7.1 +4.4 83 +6 +6 996.4 +6.8 +20.0
06 14.09 С 2 >70 км 10/10 1500 м
[Sc]
+10.4 +6.1 75 +9 +9 996.6 +6.8
09 14.09 З 2 н/о н/о +16.5 +6.1 50 +17 +17 995.0 +6.8 +16.5
12 14.09 Ю 2 н/о н/о +19.9 +5.3 38 +21 +21 комфорт 992.8 +6.8 +20.4
15 14.09 ЮЗ 2 н/о н/о +23.0 +0.3 22 +22 +22 комфорт 991.1 +19.9 +23.6
18 14.09 С 2 н/о н/о +16.3 +0.9 35 +17 +17 992.8 +16.2 +23.6
21 14.09 штиль 0 н/о н/о +11.7 +3.5 57 +11 +11 992.5 +11.7 +23.6
00 15.09 штиль 0 н/о н/о +11.1 +4.3 63 +11 +11 991.7 +10.2 +23.6
03 15.09 З 2 н/о н/о +11.0 +4.7 65 +10 +10 991.1 +10.2 +23.6
06 15.09 штиль 0 >70 км 10/0 2000 м
[]
+14.0 +4.9 54 +14 +15 992.0 +10.2
09 15.09 В 2 н/о н/о +23.3 -0.6 20 +22 +22 комфорт 991.7 +10.2 +23.3
12 15.09 З 5 н/о н/о +26.0 -2.3 15 +24 +24 комфорт 990.2 +10.2 +26.7
15 15.09 З 6 н/о н/о +24.7 +2.4 23 +24 +24 комфорт 990.6 +24.7 +28.2
18 15.09 З 2 н/о н/о +19.8 +1.8 30 +21 +21 комфорт 991.9 +19.8 +28.2
21 15.09 В 1 н/о н/о +15.5 +3.0 43 +16 +16 992.5 +15.5 +28.2
00 16.09 штиль 0 н/о н/о +12.1 +3.1 54 +12 +12 992.8 +12.1 +28.2
03 16.09 штиль 0 н/о н/о +9.7 +3.0 63 +9 +9 992.4 +9.7 +28.2
06 16.09 штиль 0 >70 км ясно +12.3 +5.2 62 +12 +14 993.9 +9.1
09 16.09 СЗ 1 н/о н/о +23.7 +8.3 37 +24 +24 комфорт 993.7 +9.1 +23.7
12 16.09 З 4 >70 км ясно +28.6 +5.7 23 +27 +36 жарко 992.0 +9.1 +28.6
15 16.09 СЗ 3 н/о н/о +29.0 +2.6 18 +27 +27 жарко 991.5 +28.4 +30.1
18 16.09 В 1 н/о н/о +19.2 +10.5 57 +21 +21 комфорт 994.0 +19.2 +30.1
21 16.09 В 1 н/о н/о +15.1 +11.7 80 +16 +16 995.7 +15.1 +30.1
00 17.09 штиль 0 н/о н/о +11.3 +9.2 87 +11 +11 995.0 +11.3 +30.1
03 17.09 штиль 0 н/о н/о +13.6 +11.6 88 +13 +13 994.0 +10.2 +30.1
06 17.09 СВ 2 5000 м 10/10 600 м
[Sc]
+13.9 +11.9 88 +14 +14 995.0 +10.2
09 17.09 Ю 1 н/о н/о +20.3 +12.6 61 +23 +23 комфорт 994.2 +10.2 +20.3
12 17.09 Ю 2 >70 км ясно +27.8 +9.8 32 +28 +42 жарко 991.9 +10.2 +27.8
15 17.09 ЮВ 2 н/о н/о +27.4 +10.8 35 +28 +28 жарко 991.4 +27.4 +28.9
18 17.09 ЮВ 2 >70 км ясно +19.5 +11.8 61 +22 +22 комфорт 994.1 +19.5 +28.9
21 17.09 В 1 н/о н/о +15.4 +12.5 83 +16 +16 995.4 +15.4 +28.9
00 18.09 СВ 2 н/о н/о +15.5 +12.4 82 +16 +16 995.3 +15.0 +28.9
03 18.09 С 2 н/о н/о +15.2 +12.9 86 +15 +15 994.7 +15.0 +28.9
06 18.09 С 1 >70 км 9/9 600 м
[Sc]
+14.7 +12.7 88 +15 +15 995.3 +13.3
09 18.09 ЮЗ 1 н/о н/о +22.1 +13.0 56 +25 +25 комфорт 995.0 +13.3 +22.1
12 18.09 ЮВ 3 >70 км 10/10 1500 м
[Sc]
+27.2 +13.4 43 +29 +29 жарко 993.2 +13.3 +27.2
15 18.09 ЮВ 3 н/о н/о +24.3 +12.7 48 +26 +26 жарко 992.9 +24.3 +27.3
18 18.09 В 2 20 км 10/10 600 м
[Sc]
+19.6 +15.3 76 +22 +22 комфорт 994.7 +19.6 +27.3
21 18.09 В 2 н/о н/о +18.3 +15.4 83 +19 +19 994.6 +18.2 +27.3
00 19.09 В 2 н/о н/о +17.1 +14.7 86 +18 +18 993.6 +17.1 +27.3
03 19.09 В 2 н/о н/о +17.0 +14.3 84 +18 +18 991.9 +16.9 +27.3
06 19.09 В 2 >70 км 10/10 300 м
[Sc]
+17.4 +14.1 81 +18 +18 991.1 +16.9
09 19.09 З 2 н/о н/о +23.8 +14.9 57 +27 +27 жарко 988.0 +16.9 +24.2
12 19.09 Ю 2 >70 км 9/9 1500 м
[Sc]
+31.8 +13.8 34 +33 +35 жарко 984.5 +16.9 +31.8
15 19.09 З 3 н/о н/о +32.6 +11.0 27 +32 +32 жарко 984.3 +30.7 +33.9
18 19.09 З 3 н/о н/о +27.2 +6.3 26 +26 +26 жарко 984.7 +27.0 +33.9
21 19.09 СВ 2 н/о н/о +20.4 +8.8 47 +22 +22 комфорт 985.1 +20.4 +33.9
09 20.09 СЗ 6 н/о н/о +22.7 +12.7 53 +25 +25 комфорт 990.2 +17.8 +23.1
12 20.09 З 7 н/о н/о +24.8 +11.9 44 +26 +26 жарко 989.0 +17.8 +25.4
15 20.09 З 6 н/о н/о +24.0 +9.7 40 +25 +25 комфорт 988.9 +23.4 +25.4

 

Местоположение метеостанции Робертсон (Южная Африка): широта -33.80 долгота 19.90 высота над уровнем моря 204 м.

В архиве по умолчанию представлена погода в Робертсоне за последнюю неделю. Архивные данные за месяц целиком и за предыдущие месяцы, начиная с января 2011 года, Вы можете получить, выбрав интересующий диапазон дат из раскрывающегося списка и нажав кнопку "Ввод!".


*Определитесь, кто Вы:
робот инопланетянин человек

Внимание! Время в таблицах - всемирное. Для получения местного времени необходимо прибавить поправку, которая равна 2 ч.

Смотрите также архив погоды в соседних городах и на ближайших метеорологических станциях:

Погода в Тигерхуке (Южная Африка) (39 км)
Погода в Вустере (Южная Африка) (45 км)
Погода в Парле (Южная Африка) (86 км)
Погода в Херманусе (Южная Африка) (94 км)
Погода на Станции Excelsior Ceres (Южная Африка) (103 км)
Погода в Странде (Южная Африка) (104 км)
Погода в Лайнгсбурге (Южная Африка) (112 км)
Погода в Струисбааи (Южная Африка) (112 км)
Погода на Мысе Игольном (Южная Африка) (115 км)
Погода в Малмсбери (Южная Африка) (116 км)

Пояснения к столбцам:

Ветер - указаны скорость ветра в м/с - средняя за 10 мин, порывы в срок и между сроками (в фигурных скобках) и направление, откуда дует ветер: С - северный, СВ - северо-восточный, В - восточный, ЮВ - юго-восточный, Ю - южный, ЮЗ - юго-западный, З - западный, СЗ - северо-западный.
Видимость - горизонтальная дальность видимости в метрах или километрах. При видимости от 1 до 10 км при отсутствии осадков обычно наблюдается дымка, при ухудшении видимости до 1 км и менее - туман. В сухую погоду видимость может ухудшаться дымом, пылью или мглою.
Явления - указаны атмосферные явления, наблюдавшиеся в срок или в последний час перед сроком; фигурными скобками обозначены явления, наблюдавшиеся между сроками (за 1-3 часа до срока); квадратными скобками обозначены град или гололедные отложения с указанием их диаметра в мм.
Облачность - указаны через наклонную черту общая и нижняя облачность в баллах и высота нижней границы облаков в метрах; квадратными скобками обозначены формы облаков: Ci - перистые, Cs - перисто-слоистые, Cc - перисто-кучевые, Ac - высококучевые, As - высокослоистые, Sc - слоисто-кучевые, Ns - слоисто-дождевые, Cu - кучевые, Cb - кучево-дождевые. Подробнее классификацию облаков см. в Атласе облаков (PDF).
T - Температура воздуха - температура, измеренная на высоте 2 м над землей.
Td - Температура точки росы - температура, при понижении до которой содержащийся в воздухе водяной пар достигнет насыщения.
f - Относительная влажность воздуха - влажноcть воздуха, измеренная на высоте 2 м над землей.
Te - Эффективная температура - температура, которую ощущает одетый по сезону человек в тени. Характеристика душности погоды. При расчете учитывается влияние влажности воздуха и скорости ветра на теплоощущения человека.
Tes - Эффективная температура на солнце - температура, которую ощущает человек, с поправкой на солнечный нагрев. Характеристика знойности погоды. Зависит от высоты солнца над горизонтом, облачности и скорости ветра. Ночью, в пасмурную погоду, а также при ветре 12 м/с и более поправка равна нулю.
P - Атмосферное давление - приведенное к уровню моря атмосферное давление.
Po - Атмосферное давление - измеренное на уровне метеостанции атмосферное давление.
Tmin - Минимальная температура - минимум температуры воздуха на высоте 2 м над землей.
Tmax - Максимальная температура - максимум температуры воздуха на высоте 2 м над землей.
R - Количество осадков - Количество выпавших осадков за период времени, мм. При наведении курсора мыши на число - период времени, за который выпало указанное количество осадков.
R24 - Количество осадков - Количество выпавших осадков за 24 часа, мм.
S - Снежный покров - Высота снежного покрова, см. При наведении курсора мыши на число - состояние снежного покрова и степень покрытия местности в баллах.